Стрелка-Чуня

Россия / Красноярский край     61°44′22″N   102°48′06″E
темп.,
°C
ветер,
м/с
пор.,
м/с
влажн.,
%
обл.,
%
осадки,
мм/ч
давл.,
гПа
погр.,
м
6 мая, чт
чт601:00−3зюз399221 0.1 1011244
04:00−5зюз26955 0.0 1011142
07:00−1з34775 0.0 1011412
10:00+1з3358100 0.2 10111356
13:00+3сз2352100 0.5 10111495
16:00+3с235196 0.8 10121327
19:00+1св11745 1.0 101422
22:00−3св11915 0.0 101613
7 мая, пт
пт701:00−4всв11915 0.0 101812
04:00−4в11915 0.0 101918
07:00+1вюв36685 0.0 1019309
10:00+5ююв46585 0.0 10171024
13:00+7ююв56525 0.0 10161358
16:00+8ююв56535 0.0 10151433
19:00+4юв49755 0.0 1015269
22:00+1юв311905 0.0 1015229
8 мая, сб
сб801:000юв3119130 0.0 1015268
04:00−1юв31093100 0.0 1015232
07:00+4юв5117560 0.0 1014587
10:00+7юв68605 0.0 10131142
13:00+10юв58555 0.0 10121570
16:00+10юв475823 0.0 10121700
19:00+7вюв377436 0.1 1013163
22:00+3вюв37845 0.0 1015106
9 мая, вс
вс901:00+1в238249 0.0 101645
04:00+1в238281 0.0 101751
07:00+5всв3668100 0.0 1018254
10:00+9всв465170 0.0 10181679
13:00+10всв4652100 0.1 10181675
16:00+10всв465398 0.0 10191207
19:00+8ссв376713 0.0 1020298
22:00+5св228132 0.0 102233
10 мая, пн
пн1001:00+3ссв228711 0.0 102320
04:00+2ссв228782 0.0 102428
07:00+6св356513 0.0 1024372
10:00+10св344976 0.0 10241632
13:00+11св343999 0.1 10232153
16:00+11св444183 0.0 10231705
19:00+9св46525 0.0 1024751
22:00+4св23695 0.0 102548